CAPE
968 954 1001 1049 1207 1414 1432 1462 1490 1434 1499 1464 1434 1313 1739 1782 2103 2313 2106 2063 1966 2143 2246 1980 2023 2262 2025 2135 2151 2637 2231 1420 1754 1646 1117 1579 1399 455 37 7 5 2 3
1311 1361 1331 1305 1250 1110 1291 1342 1493 1569 1624 1604 1566 1496 1518 1524 1680 2111 2131 1622 1953 1874 1653 1794 1730 1298 2136 2319 1698 2341 1917 2028 1826 1497 2005 2056 1362 993 9 10 4 1 3
1220 1456 1659 1671 1688 1733 1774 1749 1655 1547 1578 1470 1726 1822 1697 1598 1540 1575 1715 1830 1694 1679 1616 1805 1860 1915 1901 1462 2383 2378 2783 2021 2301 2161 1978 1904 510 20 9 7 6 6 2
1057 1011 1106 1161 1313 1347 1459 1761 1849 1846 1719 1625 1627 1661 1620 1487 1350 1269 1251 1538 1468 1323 1651 1850 1865 2041 2086 2237 2271 2279 2284 2430 2480 2232 2136 1787 1484 169 6 7 7 7 4
1028 928 870 907 875 924 1237 1485 1671 1718 1624 1742 1756 1701 1654 1374 926 961 872 965 924 907 1381 2012 2015 1904 1359 1240 1745 2298 2163 2340 2610 2189 2359 1261 1206 164 90 7 7 6 6
655 685 474 281 266 346 442 490 775 1294 1620 1783 1839 1739 1642 1215 372 9 246 965 1049 1060 958 1025 1907 1173 877 286 201 206 692 2666 2179 1829 1895 1205 2124 1171 383 51 5 6 5
621 495 518 500 407 374 384 361 382 533 845 1562 1803 1766 1760 1713 595 24 0 725 1105 1305 1404 1241 1339 1158 1211 1910 475 1 1 0 206 2150 1678 1719 2281 2314 1484 185 9 2 39
518 410 360 404 462 489 368 297 105 211 305 776 1577 1803 1866 1819 826 48 0 830 1336 1552 1657 1891 2096 2074 1997 1874 2066 1837 1719 1569 893 741 1166 1740 1622 1388 1360 985 434 65 3
1212 1098 868 746 632 528 348 527 344 269 207 264 591 1340 1840 1965 803 245 25 1038 1247 1635 1770 1972 2049 2123 1655 1123 1613 1840 1843 1617 187 0 2 0 62 144 501 548 71 5 6
1444 1414 1225 868 578 430 423 267 246 274 330 739 829 756 530 950 506 106 0 1035 1344 1476 1572 1660 1075 927 1181 686 630 1955 1881 1961 1257 40 0 0 0 0 0 465 247 77 4
1417 994 806 631 409 249 143 41 4 86 110 390 532 988 930 890 717 1 0 343 828 1243 1346 1365 1397 437 151 0 1 873 1342 1476 1068 201 52 80 0 38 26 82 336 232 20
1262 988 659 282 34 6 6 3 2 8 4 218 352 382 264 78 2 1 1 1 0 64 210 420 419 35 1 2 1 0 1 1 784 190 152 47 1 0 7 18 38 14 0
1195 891 407 6 2 2 4 6 5 4 4 0 16 112 34 5 3 0 0 0 0 2 8 3 0 0 1 0 0 1 1 2 3 1 2 1 0 0 1 1 1 1 1
835 629 162 2 2 2 1 1 2 2 6 11 10 8 1 2 5 3 5 4 1 3 2 4 2 0 1 0 2 1 4 4 5 0 2 4 2 3 3 4 0 1 2
597 280 11 0 0 2 1 0 2 2 1 5 8 8 1 8 3 1 1 3 3 2 1 9 8 14 10 8 9 11 2 5 1 1 2 4 5 4 4 2 2 1 0
487 2 6 2 2 1 1 2 1 0 0 0 0 1 3 0 1 1 1 2 1 0 9 10 7 6 3 6 8 9 8 4 4 2 2 2 1 2 3 6 2 0 0
385 3 5 4 6 5 2 3 4 0 1 1 1 0 0 2 2 2 0 0 0 0 7 8 10 10 9 5 4 4 3 6 7 6 2 2 2 2 1 1 0 0 0
52 0 5 13 6 6 3 11 5 4 7 4 0 0 1 2 0 0 0 0 2 5 12 8 10 9 7 7 5 3 4 6 8 7 7 3 1 0 1 2 1 0 0
22 0 0 12 4 2 11 14 8 5 6 10 11 1 0 1 0 0 0 18 25 22 10 14 18 20 14 5 1 3 4 4 4 4 3 3 2 1 3 4 4 0 0
33 0 0 10 10 10 9 6 6 5 5 7 3 5 3 0 6 16 12 10 12 16 20 16 9 11 16 3 2 1 1 2 2 1 0 0 0 0 0 1 13 0 0
16 0 0 10 16 18 21 17 15 33 18 11 3 1 0 3 29 17 12 8 0 0 16 15 14 11 1 0 0 0 0 0 3 4 4 5 3 0 0 0 33 6 6
3 0 2 13 19 16 16 15 28 40 35 20 13 4 0 1 6 10 3 5 11 1 21 6 0 13 3 1 0 0 1 7 4 3 1 1 0 0 0 0 16 27 8
25 8 2 8 14 2 6 7 5 9 6 3 5 14 7 6 2 3 2 2 2 2 0 0 1 0 0 2 1 1 0 0 0 0 0 0 0 0 0 0 0 0 0
47 0 23 2 4 4 3 5 2 0 0 3 2 0 0 0 0 3 3 1 1 0 0 1 2 0 0 0 0 1 0 0 0 0 0 0 0 0 0 0 0 0 0
87 132 107 17 56 15 20 18 7 0 17 18 20 10 0 0 0 0 0 3 2 1 0 0 0 0 0 6 1 0 0 0 0 0 0 0 0 0 0 0 0 0 0
114 186 237 193 276 364 324 290 168 68 26 39 32 37 21 14 0 0 0 0 0 0 0 0 0 0 0 0 0 0 0 0 0 0 0 0 0 0 0 0 0 0 7
CIN
-122 -97 -75 -72 -57 -43 -27 -24 -28 -30 -37 -34 -34 -24 -23 -27 -21 -12 -15 -4 -11 -4 -5 -4 -3 -6 -0 -2 -3 -2 -8 -10 -3 -3 -10 -7 -3 -37 -103 -22 -0 -0 -0
-97 -77 -84 -72 -70 -62 -55 -51 -36 -25 -28 -36 -25 -24 -18 -23 -20 -17 -14 -4 -9 -2 -3 -1 -3 -0 -4 -2 -0 -2 -0 -5 -1 -1 -3 -6 -0 -4 -0 -0 -0 -0 -0
-88 -62 -40 -39 -36 -33 -29 -28 -35 -34 -24 -21 -24 -22 -19 -16 -20 -22 -25 -17 -15 -8 -5 -2 -3 -3 -5 -2 -0 -1 -0 -2 -2 -1 -2 -6 -35 -112 -0 -0 -0 -0 -0
-107 -87 -68 -59 -44 -47 -37 -26 -19 -15 -15 -19 -15 -15 -18 -21 -24 -27 -29 -22 -23 -16 -14 -9 -7 -5 -4 -2 -4 -3 -0 -0 -0 -0 -1 -0 -0 -81 -0 -0 -0 -0 -0
-86 -78 -64 -57 -60 -63 -38 -20 -20 -16 -9 -0 -4 -5 -7 -14 -23 -44 -33 -28 -30 -24 -14 -6 -3 -17 -31 -32 -3 -0 -1 -0 -0 -0 -0 -0 -0 -86 -112 -0 -0 -0 -0
-111 -86 -83 -132 -130 -99 -88 -85 -44 -8 -1 -0 -0 -10 -3 -7 -54 -59 -79 -14 -16 -19 -19 -14 -1 -35 -65 -149 -165 -181 -73 -0 -0 -0 -0 -0 -0 -0 -32 -100 -0 -0 -0
-114 -99 -76 -68 -78 -74 -60 -63 -57 -33 -12 -1 -0 -3 -3 -2 -64 -186 -0 -28 -12 -9 -11 -13 -6 -1 -25 -2 -159 -0 -0 -0 -148 -6 -0 -0 -0 -0 -0 -52 -34 -0 -36
-123 -114 -107 -84 -60 -46 -54 -52 -75 -32 -28 -6 -0 -6 -3 -2 -62 -187 -0 -56 -17 -7 -3 -0 -0 -0 -0 -4 -0 -0 -5 -8 -53 -48 -9 -1 -0 -0 -0 -0 -6 -48 -0
-47 -19 -15 -12 -21 -37 -57 -12 -18 -28 -27 -49 -22 -4 -0 -0 -82 -160 -178 -47 -32 -20 -15 -10 -5 -3 -16 -50 -12 -0 -0 -0 -56 -0 -3 -0 -111 -108 -23 -1 -64 -0 -0
-7 -0 -0 -0 -14 -22 -22 -48 -36 -12 -2 -0 -2 -18 -45 -19 -76 -183 -0 -38 -28 -21 -26 -23 -66 -65 -40 -86 -79 -5 -0 -0 -4 -21 -0 -0 -0 -0 -0 -0 -0 -20 -0
-5 -2 -0 -0 -9 -35 -62 -58 -0 -32 -46 -12 -10 -0 -1 -3 -70 -0 -0 -69 -19 -3 -4 -9 -15 -117 -196 -0 -0 -33 -11 -7 -22 -100 -42 -66 -0 -67 -88 -49 -0 -0 -9
-13 -7 -5 -33 -193 -51 -0 -0 -0 -0 -0 -49 -8 -7 -28 -154 -43 -0 -0 -0 -0 -103 -69 -22 -34 -57 -0 -0 -0 -0 -6 -0 -13 -77 -90 -129 -0 -0 -30 -49 -62 -25 -0
-4 -3 -37 -72 -0 -0 -0 -0 -0 -0 -0 -0 -8 -87 -127 -0 -0 -0 -0 -0 -0 -0 -0 -20 -0 -0 -0 -0 -0 -0 -0 -0 -24 -0 -0 -0 -0 -0 -0 -0 -0 -0 -0
-29 -20 -110 -35 -0 -0 -0 -0 -0 -0 -0 -0 -0 -0 -0 -0 -0 -0 -0 -0 -0 -0 -0 -0 -0 -0 -0 -0 -0 -0 -0 -0 -0 -0 -0 -0 -0 -0 -0 -0 -0 -0 -0
-24 -54 -52 -0 -0 -0 -0 -0 -0 -0 -0 -0 -0 -0 -0 -0 -0 -0 -0 -0 -0 -0 -0 -0 -0 -0 -0 -0 -0 -0 -0 -0 -0 -0 -0 -0 -0 -0 -0 -0 -0 -0 -0
-27 -0 -0 -0 -0 -0 -0 -0 -0 -0 -0 -0 -0 -0 -0 -0 -0 -0 -0 -0 -0 -0 -0 -0 -0 -0 -0 -0 -0 -0 -0 -0 -0 -0 -0 -0 -0 -0 -0 -0 -0 -0 -0
-37 -0 -0 -0 -0 -0 -0 -0 -0 -0 -0 -0 -0 -0 -0 -0 -0 -0 -0 -0 -0 -0 -0 -0 -0 -0 -0 -0 -0 -0 -0 -0 -0 -0 -0 -0 -0 -0 -0 -0 -0 -0 -0
-82 -0 -0 -0 -0 -0 -0 -5 -0 -0 -0 -0 -0 -0 -0 -0 -0 -0 -0 -0 -0 -0 -0 -0 -0 -0 -0 -0 -0 -0 -0 -0 -0 -0 -0 -0 -0 -0 -0 -0 -0 -0 -0
-97 -0 -0 -0 -0 -0 -1 -4 -6 -0 -0 -0 -42 -0 -0 -0 -0 -0 -0 -33 -12 -11 -14 -0 -0 -0 -0 -0 -0 -0 -0 -0 -0 -0 -0 -0 -0 -0 -0 -0 -0 -0 -0
-83 -0 -0 -0 -0 -2 -2 -4 -8 -0 -0 -0 -0 -16 -0 -0 -0 -52 -0 -0 -0 -8 -41 -18 -0 -34 -14 -0 -0 -0 -0 -0 -0 -0 -0 -0 -0 -0 -0 -0 -0 -0 -0
-45 -0 -0 -0 -0 -0 -0 -0 -1 -0 -2 -5 -0 -0 -0 -3 -88 -43 -2 -0 -0 -0 -57 -7 -1 -59 -0 -0 -0 -0 -0 -0 -0 -0 -0 -0 -0 -0 -0 -0 -0 -0 -0
-42 -0 -0 -0 -0 -0 -0 -0 -0 -0 -0 -2 -3 -2 -0 -0 -7 -6 -1 -0 -149 -0 -36 -13 -0 -18 -6 -0 -0 -0 -0 -9 -0 -0 -0 -0 -0 -0 -0 -0 -1 -0 -0
-41 -49 -0 -0 -0 -1 -0 -0 -0 -0 -0 -0 -0 -0 -0 -0 -0 -0 -0 -0 -0 -0 -0 -0 -0 -0 -0 -6 -20 -27 -0 -0 -0 -0 -0 -0 -0 -0 -0 -0 -0 -0 -0
-13 -0 -2 -0 -0 -0 -0 -0 -0 -0 -0 -0 -0 -0 -0 -0 -0 -0 -0 -0 -0 -0 -0 -3 -3 -0 -0 -0 -0 -2 -0 -0 -0 -0 -0 -0 -0 -0 -0 -0 -0 -0 -0
-8 -0 -3 -1 -0 -0 -6 -69 -79 -0 -13 -18 -12 -16 -0 -0 -0 -0 -0 -0 -0 -4 -0 -0 -0 -0 -0 -32 -3 -0 -0 -0 -0 -0 -0 -0 -0 -0 -0 -0 -0 -0 -0
-1 -0 -0 -0 -0 -0 -2 -2 -8 -31 -9 -22 -13 -24 -14 -20 -0 -0 -0 -0 -0 -0 -0 -0 -0 -0 -0 -0 -0 -0 -0 -0 -0 -0 -0 -0 -0 -0 -0 -0 -0 -0 -0
Wind_Speed
13 12 12 11 12 12 11 11 11 10 9 9 8 8 9 9 9 9 9 7 7 7 6 6 6 5 5 4 3 4 4 5 3 2 2 4 5 7 6 6 6 5 5
11 12 13 12 11 12 13 14 12 12 11 10 8 7 8 8 7 9 10 9 9 9 8 7 7 5 7 5 5 5 5 4 4 6 4 4 3 6 6 6 4 4 4
10 10 10 10 10 12 12 12 12 12 11 11 10 9 9 9 8 8 8 8 8 8 8 8 9 6 7 7 6 5 5 5 5 4 2 2 3 3 4 4 5 5 4
10 10 10 10 9 9 10 10 10 9 11 11 11 11 10 9 8 8 8 9 8 8 9 9 9 8 8 7 6 8 7 5 5 5 4 4 4 4 3 3 3 3 5
8 9 9 7 6 6 7 8 9 9 10 11 11 11 11 10 8 9 9 9 8 9 9 9 10 9 7 8 6 7 7 7 6 6 6 6 5 3 6 4 4 4 3
8 8 7 6 6 7 6 6 8 9 10 11 12 10 11 10 10 12 11 9 9 9 10 11 10 8 10 11 12 12 9 8 9 8 7 10 8 7 6 5 4 3 3
9 9 8 7 7 6 7 6 8 10 10 11 11 10 11 11 9 12 13 10 10 10 10 10 10 9 10 11 10 8 9 11 11 8 10 10 8 9 8 9 9 6 5
8 8 7 7 8 8 9 8 6 9 9 10 10 10 10 10 10 12 12 11 10 12 12 12 12 11 11 10 10 10 11 9 11 10 12 11 10 8 10 10 9 6 5
8 8 7 7 6 5 6 7 8 8 9 9 8 10 11 12 11 12 9 10 11 12 12 13 13 12 12 12 12 12 13 12 7 5 6 7 5 6 8 7 7 7 3
7 6 6 5 4 4 3 2 2 5 9 8 9 11 11 11 9 10 10 8 10 9 11 12 11 14 10 11 12 12 13 12 11 9 8 6 7 7 8 11 9 8 5
7 7 7 5 5 3 2 0 1 2 3 5 8 8 8 6 2 2 5 5 5 7 7 7 7 10 11 10 13 11 13 12 11 10 9 8 8 8 8 9 7 8 8
8 8 7 5 3 3 2 1 2 2 2 3 2 1 2 4 6 4 5 5 6 6 7 7 6 3 4 7 8 13 13 6 8 8 7 7 7 7 5 6 5 3 3
7 6 6 6 4 3 2 1 1 2 1 2 1 2 3 3 3 5 5 6 5 3 5 6 8 10 11 8 11 12 9 6 7 7 8 9 9 9 9 6 8 10 7
7 6 5 4 4 4 4 3 2 1 0 1 2 2 2 3 4 5 5 5 5 5 5 5 5 7 8 6 3 5 5 6 7 8 7 4 4 3 4 3 8 9 7
6 5 4 3 3 4 4 4 3 3 3 3 3 3 4 4 2 4 3 3 2 4 5 3 3 3 2 2 2 4 4 3 3 4 6 7 6 8 8 7 7 7 8
6 5 3 3 2 2 3 5 7 5 4 4 3 4 4 3 3 2 3 3 4 5 4 4 4 4 4 4 3 2 3 5 6 7 8 8 7 8 8 8 6 6 8
5 5 4 3 4 4 3 3 4 3 5 4 6 6 7 2 7 9 9 6 10 6 7 6 5 5 5 5 5 5 5 6 7 8 9 8 8 8 7 6 6 4 7
5 6 4 4 4 4 4 4 3 3 3 3 2 1 1 1 5 8 9 3 5 6 6 5 4 5 5 5 5 5 6 6 6 7 8 8 7 7 6 5 5 4 5
5 4 4 3 4 4 4 4 3 3 3 3 3 5 5 3 2 2 6 4 2 3 3 4 4 4 4 5 4 5 5 5 6 6 6 5 5 7 7 6 6 8 8
5 5 4 4 4 4 3 3 3 3 3 3 3 2 2 1 2 2 2 2 2 3 3 2 3 2 4 4 4 4 4 4 4 5 5 5 6 7 7 8 8 9 9
5 6 4 5 5 5 4 4 4 4 4 4 4 3 1 4 3 3 3 3 3 3 4 3 3 2 3 4 3 4 4 3 6 7 8 8 8 7 6 6 9 10 9
6 6 6 6 6 6 5 4 5 4 4 4 3 4 7 5 4 4 4 4 4 4 4 3 3 5 5 4 4 7 8 8 7 7 7 7 7 7 6 7 7 8 9
7 7 6 6 5 5 6 5 4 4 4 3 4 4 4 5 4 5 5 5 4 4 4 5 4 4 5 5 5 6 6 6 6 7 7 7 6 6 7 7 8 9 9
7 8 7 6 6 6 6 6 5 6 4 5 6 5 4 4 4 6 6 6 5 4 5 7 6 7 6 7 6 7 7 6 5 7 8 7 8 9 8 7 8 10 10
7 8 8 7 7 6 5 5 5 5 5 6 6 5 4 4 4 4 5 5 6 7 7 6 5 7 10 10 9 10 7 10 8 6 7 7 8 10 8 8 9 9 10
7 7 7 6 6 6 5 5 5 4 5 5 5 5 5 5 5 4 5 6 6 6 7 5 6 9 8 7 9 8 9 11 10 11 9 8 8 9 8 10 12 9 10
Wind_Direction
207 210 214 215 214 216 224 226 224 224 218 232 234 252 248 228 215 216 222 222 218 230 225 241 252 259 264 253 240 219 204 225 241 256 202 134 158 138 146 128 161 118 119
209 209 214 219 219 223 229 227 223 228 226 217 226 236 256 254 256 228 218 227 222 233 241 242 250 258 265 260 256 258 242 222 256 265 200 150 181 164 154 156 150 117 118
209 212 213 218 225 228 232 237 230 227 228 227 223 223 239 254 249 253 258 241 230 239 251 248 249 237 258 263 254 251 254 234 224 253 246 159 119 137 128 112 129 130 128
203 212 219 221 226 240 241 239 245 237 236 225 227 230 230 237 244 246 238 239 238 241 248 251 244 235 246 258 254 244 236 234 224 237 249 225 183 148 147 153 169 168 171
196 203 214 212 207 211 222 235 237 236 240 241 228 224 230 231 225 220 238 240 244 255 247 245 242 245 247 253 260 255 240 240 236 236 242 243 206 174 193 167 180 158 156
186 193 189 188 194 202 206 225 236 235 231 235 236 229 235 233 207 199 214 239 243 246 251 255 253 234 240 226 225 242 261 236 239 238 240 238 238 211 193 179 146 160 195
187 192 190 189 198 213 220 229 235 238 236 229 233 227 235 240 213 206 202 237 244 246 246 247 249 245 228 250 218 222 233 245 255 264 248 244 238 215 197 192 188 193 216
173 182 190 202 215 223 231 234 223 238 236 234 228 221 232 239 218 220 217 236 240 243 245 247 248 251 247 243 247 244 243 233 227 228 240 255 245 249 216 208 201 171 84
155 164 177 194 203 215 233 236 234 235 232 237 238 232 222 233 214 218 210 230 237 239 239 241 241 246 246 211 242 250 251 245 188 229 274 300 267 220 220 167 166 172 157
143 135 132 141 148 157 164 190 262 240 242 236 235 231 230 240 214 221 205 234 235 237 240 244 226 244 253 204 226 244 248 246 235 207 219 226 214 198 191 213 189 203 168
129 134 127 127 124 116 124 338 283 268 280 265 243 240 242 245 198 170 219 247 258 256 251 247 243 203 234 233 223 249 248 265 230 214 223 219 202 200 201 212 223 215 198
142 140 138 131 122 119 146 194 233 259 270 263 263 257 79 85 54 41 10 297 323 279 272 283 290 31 329 263 232 238 261 270 250 223 211 195 190 184 188 182 204 131 56
160 150 136 128 113 88 70 25 265 299 262 238 120 79 102 80 72 39 356 323 304 272 277 292 302 294 279 262 245 247 242 231 223 211 215 211 204 182 162 135 116 98 62
156 154 143 133 116 81 76 51 45 12 356 74 65 77 59 35 33 7 341 327 299 282 279 284 290 277 269 276 289 236 226 224 224 222 224 194 125 101 105 116 110 90 76
145 143 139 114 86 93 71 31 62 63 340 42 68 66 82 79 23 288 280 339 326 296 278 261 286 289 308 325 272 241 210 210 140 106 96 97 94 95 98 83 58 76 99
139 145 146 157 156 121 116 114 61 65 60 62 50 66 105 106 250 318 354 338 327 3 46 28 16 13 25 2 3 42 71 104 113 115 108 113 108 110 105 97 85 105 116
147 151 153 187 169 169 167 155 134 97 66 86 77 71 67 71 21 12 12 15 29 49 50 37 32 26 34 42 39 41 48 81 98 103 106 107 103 117 106 108 106 90 94
162 136 169 189 180 179 189 192 170 161 149 136 98 86 111 42 38 18 356 276 75 71 74 63 55 56 33 59 64 70 80 87 95 101 108 118 123 119 116 115 114 148 163
181 153 176 176 198 204 189 187 181 176 177 156 173 195 190 228 270 71 326 13 23 92 89 91 94 88 90 92 73 83 87 100 113 120 117 122 133 142 147 159 177 184 165
187 141 169 159 181 197 192 199 198 197 203 214 206 226 184 229 240 301 329 327 340 344 34 99 102 122 103 112 111 94 93 107 114 127 129 139 155 171 172 185 187 182 191
180 161 178 174 186 195 195 205 212 219 218 221 238 235 231 257 269 252 236 226 210 222 202 201 142 147 156 142 144 131 129 149 170 168 172 179 181 193 204 207 200 188 184
184 172 175 198 199 196 192 209 222 227 227 230 239 228 198 236 255 258 252 240 235 230 264 211 202 200 167 194 187 169 190 187 187 190 189 196 197 206 195 194 183 184 183
185 173 181 194 210 179 191 197 202 227 240 251 271 253 235 246 229 236 240 236 228 229 225 243 222 193 199 199 212 223 209 205 204 198 203 197 196 198 192 190 185 190 192
182 182 190 182 200 200 196 198 189 202 222 228 233 233 239 244 244 229 223 224 224 227 218 227 235 233 227 242 232 214 219 204 195 194 202 194 192 178 188 191 188 192 197
190 192 191 187 203 211 188 214 195 197 209 215 231 235 234 232 242 239 233 225 206 201 209 227 250 262 258 236 221 212 185 166 194 177 195 201 203 192 198 199 201 204 209
194 200 204 202 221 229 228 237 234 234 239 236 236 238 235 231 227 222 207 206 210 213 223 230 243 248 245 227 216 195 158 184 189 198 200 198 198 197 201 212 210 218 218